Location: �bnet
(46.9957°N, 8.4908°E)
Time: 04:18:12
(UTC+00:00)

Cosmos 1515 - Pass Details

Date: 11 May 2021
Orbit: 505 x 513 km, 82.5° (Epoch: 23 June)

Event Time Altitude Azimuth Distance (km) Brightness Sun altitude
Exits shadow 22:04:46 66° 48° (NE) 558 3.8 -22.6°
Drops below altitude 10° 22:08:11 10° 13° (NNE) 1,734 7.1 -22.8°
Sets 22:10:19 0° 11° (NNE) 2,626 8.3 -22.9°
